Theta_e
318 318 318 318 318 318 318 317 314 313 310 311 311 311 312 312 312 313 314 319 323 333 350 349 351 351 347 350 353 351 357 361 357 357 359 354 357 354 350 353 351 349 349 348 350
319 318 318 318 317 318 318 315 313 311 310 310 310 311 312 312 315 318 316 322 337 340 354 353 355 355 355 353 347 352 356 358 355 353 355 354 355 356 354 353 353 350 348 348 351
319 319 318 318 318 317 316 316 312 310 310 310 310 311 312 313 325 324 318 326 337 347 350 353 355 350 351 352 350 351 353 352 352 352 354 356 356 354 353 354 351 350 348 348 350
318 318 318 318 316 316 315 315 312 310 310 310 311 312 312 320 342 336 324 329 345 352 352 352 353 344 344 349 348 353 351 350 351 352 353 357 351 357 355 355 350 346 345 349 349
317 318 318 317 315 315 315 315 314 311 310 311 311 311 319 321 318 332 328 327 349 346 347 346 349 346 346 348 351 352 352 351 351 351 351 355 357 357 354 350 348 346 347 349 348
317 318 318 317 316 315 315 315 314 312 311 311 311 313 321 323 327 326 330 332 351 344 342 342 343 343 346 348 351 352 353 351 351 354 355 358 358 356 352 349 348 347 348 347 347
315 317 318 319 318 314 315 315 315 312 311 311 311 321 324 319 331 327 340 345 346 344 344 344 341 346 345 349 348 348 350 351 351 356 359 354 360 358 350 347 344 343 345 343 346
312 315 318 319 318 315 316 315 314 313 311 310 312 321 314 320 333 331 345 344 344 349 348 347 345 347 347 345 342 348 349 357 354 355 356 349 362 355 348 345 340 341 342 341 340
309 312 317 319 319 316 317 313 313 311 311 311 318 319 315 329 334 335 345 340 342 341 345 349 346 342 339 340 336 340 345 351 358 354 355 354 362 357 349 345 340 339 339 339 340
308 310 315 318 320 316 317 314 311 311 314 318 324 319 319 328 334 332 340 334 339 339 343 348 345 346 339 343 343 341 347 345 356 353 354 358 359 357 351 346 342 338 337 337 336
307 309 314 317 320 316 316 316 319 319 320 316 317 317 321 323 336 334 330 333 342 346 351 349 353 355 349 343 344 340 338 339 347 348 356 358 361 359 353 349 344 338 337 336 334
308 309 313 317 319 317 319 319 321 324 323 318 318 320 321 321 327 335 337 343 345 350 338 343 349 347 341 341 342 341 340 339 346 346 354 358 361 358 355 353 347 342 339 338 335
308 310 313 318 318 316 317 318 319 320 319 322 319 318 320 320 322 323 340 342 341 345 340 341 339 338 338 336 338 337 340 341 346 355 353 355 357 357 356 353 350 346 341 339 339
310 311 314 318 316 317 318 321 323 320 321 326 325 322 319 320 322 322 339 341 341 342 336 337 334 336 333 330 333 327 333 339 355 355 361 353 355 354 353 355 353 350 347 344 341
312 313 315 317 318 316 325 321 321 319 327 326 324 321 318 320 322 325 335 334 337 338 332 332 332 330 328 329 323 325 332 343 352 352 356 357 358 352 352 355 353 350 349 346 344
318 317 317 317 317 322 322 322 320 323 334 327 324 319 322 321 322 327 332 332 331 337 332 332 329 327 327 326 323 326 338 332 327 347 358 353 355 351 353 354 353 350 348 348 346
322 319 317 317 319 324 321 318 325 326 327 328 322 319 319 320 321 326 331 334 336 334 330 323 325 323 324 326 320 323 318 327 334 348 356 339 350 350 340 344 349 350 349 346 346
322 322 322 322 321 322 321 322 331 328 329 330 321 318 320 318 320 323 327 331 330 322 321 324 326 327 324 327 325 320 319 322 326 331 334 339 351 345 340 340 341 342 346 346 345
322 320 320 322 322 321 318 325 326 326 329 329 323 322 320 319 321 323 324 324 325 321 331 321 324 324 325 324 323 322 322 321 330 335 342 342 340 335 339 342 343 348 348 348 347
320 320 320 324 323 318 319 320 323 326 328 327 331 329 323 321 319 323 321 323 327 322 321 323 325 325 323 327 325 326 319 325 327 343 344 339 342 343 343 342 345 349 347 347 347
320 317 321 322 319 315 321 320 323 324 326 327 329 329 326 326 317 319 322 322 323 321 323 321 323 325 326 329 328 326 325 316 323 329 335 338 336 332 338 341 345 347 345 346 348
315 324 322 319 315 313 318 323 323 326 325 325 326 325 326 325 319 319 320 322 320 318 320 319 318 323 324 325 324 326 326 316 320 332 334 332 331 336 336 338 343 343 340 339 345
321 322 322 321 328 324 325 328 327 330 326 325 327 329 328 326 329 326 326 327 323 320 320 318 320 324 328 324 324 330 321 315 321 328 339 334 327 336 339 341 342 340 338 338 340
322 329 321 320 319 326 329 330 333 332 328 328 328 329 329 332 329 333 332 332 330 324 336 324 316 322 327 326 324 330 329 322 323 326 328 331 329 336 339 341 341 341 341 341 342
310 318 314 326 325 321 322 324 328 330 331 329 330 330 329 331 329 328 329 328 330 331 320 320 324 321 321 322 326 327 328 323 326 322 327 322 331 330 336 337 340 339 342 342 343
310 311 309 317 318 320 314 319 323 320 329 332 329 327 329 331 331 332 329 327 330 328 325 320 325 323 327 323 325 327 325 323 322 323 332 331 332 331 331 337 340 341 341 342 348
310 309 312 313 313 315 313 315 317 316 327 321 321 327 329 322 317 319 322 324 324 325 327 323 319 321 325 322 326 326 326 325 322 325 331 333 330 333 336 337 338 340 341 341 348
Wind_Speed
16 13 11 9 8 7 6 6 5 4 3 5 5 5 4 5 5 5 6 5 8 23 22 21 3 5 8 3 4 3 3 1 1 1 1 8 5 3 8 10 1 3 5 15 27
17 14 12 10 9 7 7 5 5 4 2 4 4 4 3 3 3 10 5 10 17 26 23 14 5 3 3 3 2 4 2 3 2 5 4 9 7 8 5 9 4 8 17 29 28
18 16 13 11 9 8 6 5 4 1 3 3 3 1 1 2 1 7 15 17 24 23 23 17 6 2 3 4 3 2 2 0 2 6 4 8 5 3 11 4 5 18 20 21 25
20 18 14 11 9 6 5 2 2 0 2 2 2 1 1 1 2 5 18 18 23 19 15 12 4 2 2 2 2 1 7 7 5 4 5 4 3 5 3 2 13 17 23 20 20
22 20 16 12 8 5 4 2 0 0 1 2 2 1 3 1 7 4 20 19 24 17 14 6 4 4 3 2 3 2 3 5 8 7 1 6 6 6 4 9 17 18 17 16 14
23 23 19 14 9 5 2 1 1 2 2 2 2 2 1 3 5 11 21 24 25 16 20 12 7 7 3 5 5 6 7 8 5 4 7 8 3 2 5 13 18 19 18 16 14
23 23 22 17 9 4 1 0 3 3 3 2 3 2 1 6 5 17 23 24 27 11 1 2 5 4 5 4 5 3 3 2 3 4 5 7 5 4 8 14 14 13 15 13 14
24 24 23 18 10 3 0 2 3 5 4 3 2 1 6 7 4 18 21 13 15 10 4 2 5 1 2 2 2 1 2 3 3 7 5 6 1 5 6 12 11 13 12 13 12
24 24 22 20 12 2 2 3 4 4 6 5 2 1 5 2 2 17 20 11 11 9 9 4 3 2 3 3 3 6 2 2 3 3 4 3 2 7 5 8 10 9 9 10 11
25 25 23 20 13 1 6 7 8 5 3 3 1 2 1 4 5 12 16 6 6 3 8 6 5 4 4 3 2 2 2 2 3 6 3 4 3 9 7 8 9 9 8 9 9
26 26 23 19 12 8 14 7 3 2 0 6 4 3 2 1 11 6 12 9 5 4 5 2 3 7 9 8 2 4 2 3 1 2 4 4 6 11 8 6 7 7 8 10 9
27 27 23 18 12 11 11 3 5 3 4 7 3 6 6 3 3 5 21 7 5 6 5 3 9 13 6 4 6 6 5 7 3 2 5 3 3 7 11 9 10 12 11 13 8
28 27 23 18 3 10 10 9 1 2 2 3 4 4 5 8 4 9 12 6 5 5 7 7 5 6 4 4 5 5 7 5 5 5 6 6 1 6 8 7 9 10 10 10 13
30 27 22 12 4 4 5 7 5 5 4 3 4 6 5 5 3 5 13 6 3 6 7 6 5 3 1 5 5 3 12 8 9 6 4 2 4 6 7 12 12 13 13 13 13
30 26 20 10 3 4 3 3 7 4 4 3 3 5 2 7 5 3 5 2 6 6 2 8 3 3 5 5 6 2 7 6 3 5 5 1 2 4 7 9 14 16 16 16 15
30 23 18 5 6 4 4 2 3 5 1 2 6 5 5 3 2 3 4 3 1 2 2 7 4 4 7 2 7 8 8 9 5 3 3 2 4 5 6 9 8 13 14 15 15
31 18 14 7 2 10 6 4 5 4 3 4 5 5 4 5 3 3 6 6 5 4 5 7 5 4 4 1 4 7 7 4 4 3 5 0 4 9 3 6 6 12 12 14 15
27 15 10 13 6 11 1 5 1 3 5 3 2 3 7 7 5 3 4 5 2 4 2 1 9 1 4 6 8 6 8 6 5 4 3 4 5 6 4 6 4 3 6 12 14
18 5 4 4 17 8 5 3 6 6 2 5 3 3 2 4 5 4 9 8 10 10 7 3 6 6 5 4 6 5 4 5 7 3 2 3 7 9 5 4 4 4 6 14 15
10 3 6 9 15 4 5 4 4 4 2 2 0 2 5 4 6 8 9 5 7 12 8 5 3 3 5 3 3 3 5 4 3 4 3 4 6 6 3 6 6 6 7 7 7
2 3 14 9 7 5 4 6 5 7 3 5 4 3 7 4 8 5 9 5 7 6 8 5 3 7 5 1 3 2 2 6 5 4 5 1 6 6 8 10 11 10 8 9 8
2 4 1 6 4 1 3 4 4 6 1 6 2 8 6 5 5 5 9 7 9 10 11 7 5 5 9 2 1 3 4 5 5 4 2 3 6 2 4 6 6 5 6 3 2
3 1 1 3 3 2 4 3 2 7 5 2 3 2 2 3 1 3 4 4 4 7 9 8 3 2 8 6 2 3 3 5 5 4 4 5 6 2 4 5 3 4 5 3 5
3 3 4 4 2 3 2 4 6 7 3 5 4 3 4 6 5 3 6 2 6 5 7 8 3 7 7 8 4 3 3 1 5 4 6 6 5 4 7 7 7 6 7 2 5
4 1 2 2 5 4 2 4 5 7 5 8 5 7 3 4 5 5 5 6 0 4 4 4 3 4 6 4 3 2 2 6 5 5 6 5 7 5 11 11 9 7 8 6 3
3 3 4 2 2 3 7 5 6 8 5 6 5 9 8 5 2 5 6 1 3 7 3 1 1 2 2 3 4 2 3 6 2 3 1 3 6 5 3 8 7 9 8 6 5
8 4 1 5 4 3 3 4 4 6 1 5 4 4 5 3 5 13 9 7 5 4 3 1 6 4 3 5 4 4 6 5 5 5 7 5 9 6 5 9 13 11 10 9 7
Wind_Direction
356 350 346 339 335 328 317 314 305 297 243 233 243 254 259 262 282 264 235 199 165 152 149 155 126 106 117 120 202 143 70 56 213 163 350 140 125 103 92 129 138 103 130 136 146
359 353 347 340 334 328 322 323 309 290 210 224 237 258 277 287 290 253 205 163 146 152 148 162 188 317 23 43 76 64 80 241 219 287 246 161 130 130 112 146 66 85 110 132 139
358 355 348 343 334 328 323 321 315 279 207 211 225 242 275 326 212 238 180 161 161 160 166 166 152 79 15 8 4 45 214 329 294 307 150 149 119 108 127 204 179 149 143 143 144
2 359 352 343 335 331 326 337 333 282 190 186 199 169 247 149 191 103 170 168 156 148 159 151 152 78 103 187 163 309 249 258 298 333 37 106 83 78 84 258 145 155 151 152 155
6 0 355 347 337 330 335 328 334 122 156 177 150 150 138 232 255 156 168 164 161 147 146 169 157 141 203 205 119 241 274 266 237 271 252 73 51 88 40 106 131 136 146 149 158
8 5 0 353 338 333 333 327 160 139 152 168 143 153 146 240 329 160 167 154 170 170 176 167 189 197 141 183 192 203 255 270 289 98 128 117 129 84 66 126 131 144 146 159 163
7 4 1 356 340 324 330 192 153 139 147 156 139 132 222 243 331 174 158 161 177 201 166 192 188 196 157 189 239 229 326 64 74 81 100 124 40 50 125 129 130 140 147 152 158
6 3 2 359 348 322 202 138 143 146 138 124 110 129 244 308 293 170 161 154 186 210 350 340 279 282 304 290 350 38 77 93 156 125 165 84 207 143 138 133 133 144 153 147 158
3 1 359 360 354 319 150 130 127 139 134 120 85 67 273 2 131 179 172 184 195 257 276 298 175 145 355 27 7 34 37 43 120 137 133 88 164 156 160 142 140 151 156 154 155
359 359 356 355 3 132 147 131 125 122 113 98 77 29 303 230 158 157 185 195 106 49 328 353 44 14 18 32 319 324 22 274 207 204 139 121 126 149 162 153 157 159 158 166 165
354 354 352 350 358 146 134 127 41 14 261 193 205 235 248 122 135 151 160 212 119 152 171 231 46 234 232 206 271 317 302 233 241 202 112 170 140 166 168 151 161 175 180 185 176
350 349 348 346 341 180 166 187 209 180 315 231 296 294 269 282 117 131 151 162 161 213 131 85 238 234 239 202 217 215 250 269 312 157 93 123 142 175 179 192 188 184 191 196 172
345 343 342 344 8 156 205 223 330 104 120 292 190 199 224 150 230 198 159 163 168 201 185 191 240 148 196 232 197 237 203 203 182 118 62 125 114 172 198 186 182 202 204 198 190
341 338 335 358 132 164 238 154 298 190 70 257 265 265 155 145 225 209 169 152 171 198 188 232 277 252 127 253 148 278 195 174 160 127 176 176 258 219 187 200 193 199 198 203 202
338 333 326 335 258 202 185 348 125 123 71 171 177 173 129 165 154 236 199 39 209 181 136 251 292 305 295 201 192 282 134 140 89 86 97 236 54 266 147 210 210 203 202 203 203
334 329 316 306 227 223 188 173 137 42 106 147 146 165 121 357 36 91 133 20 26 310 268 252 250 240 222 157 186 132 74 55 61 78 347 240 135 267 188 208 200 209 204 201 199
331 318 286 220 203 129 101 105 40 127 322 192 179 166 162 172 210 129 158 164 183 6 325 319 232 235 181 25 24 73 66 21 19 9 228 170 148 252 217 229 186 199 199 200 197
332 309 276 233 191 231 216 56 145 243 240 297 114 96 167 162 215 131 127 223 192 102 1 334 318 238 147 193 165 182 158 158 176 199 254 130 232 256 232 127 134 209 219 183 194
335 315 275 334 210 159 81 80 209 205 263 326 107 140 232 226 158 139 188 213 192 167 180 167 275 301 211 209 139 180 165 170 100 53 81 249 290 293 166 149 139 163 182 182 193
332 340 5 323 161 136 77 229 244 210 308 1 258 197 213 211 156 166 180 205 200 186 161 222 288 244 294 87 33 147 149 75 19 135 224 295 278 238 225 200 181 183 190 185 185
28 66 352 119 136 53 149 229 274 253 196 190 230 232 226 217 181 207 195 238 207 181 178 145 143 265 1 342 223 54 47 49 112 111 157 195 265 207 216 195 196 201 196 176 164
25 62 81 358 54 29 143 198 254 288 289 264 191 211 205 183 190 190 212 219 169 152 167 194 164 244 236 262 32 284 125 141 121 209 90 135 276 329 243 183 171 195 92 75 93
69 117 128 321 104 6 308 309 311 350 339 274 258 157 344 70 16 187 174 298 151 150 163 185 212 15 346 1 352 215 130 113 112 90 184 134 265 45 103 105 75 105 100 122 134
76 76 338 47 32 105 29 351 332 337 261 333 341 53 40 39 6 11 357 315 343 189 136 94 133 153 183 212 163 178 152 221 118 116 169 223 280 219 171 177 154 159 144 159 179
25 84 181 0 12 43 41 1 349 358 351 16 21 44 330 35 2 25 351 329 246 336 69 104 130 155 233 232 291 133 190 176 192 164 146 244 206 263 191 190 177 169 133 159 229
78 37 355 71 305 26 9 20 16 329 0 356 39 325 28 71 75 301 27 281 333 327 81 96 181 216 311 10 182 285 278 211 232 125 338 106 252 206 167 111 148 166 154 154 148
17 25 86 315 5 66 355 308 10 331 4 61 325 340 13 349 270 252 218 255 250 311 316 42 136 123 262 336 69 346 254 194 183 180 149 163 226 157 177 186 174 168 162 159 167